Flag for Greece Weather past 2 weeks in Alexandroupoli, Greece

Now
68 °F

Sunny.


Feels Like: 68 °F
Forecast: 67 / 89 °F
Wind: 6 mph from Northeast

Location: Alexandroupoli Airport

Current Time: Aug 28, 2015 at 8:58:14 AM

Latest Report: Aug 28, 2015 at 8:20 AM


Visibility: 10 mi

Pressure: 30.09 "Hg

Humidity: 60%

Dew point: 54 °F

Location of AlexandroupoliLocation

Historic Weather in Alexandroupoli — Graph

°F

Alexandroupoli temperature yesterday

Maximum temperature yesterday: 88 °F (at 3:50 PM)
Minimum temperature yesterday: 64 °F (at 6:50 AM)
Average temperature yesterday: 77 °F

Past Weeks' High & Low Weather Summary

 TemperatureHumidityPressure
High97 °F (Aug 14, 2:50 PM)94% (Aug 18, 6:50 AM)30.09 "Hg (Aug 18, 6:50 AM)
Low59 °F (Aug 26, 6:50 AM)28% (Aug 14, 3:50 PM)29.71 "Hg (Aug 17, 3:50 PM)
Average81 °F59%29.90 "Hg
* Reported Aug 13 6:50 AM — Aug 28 6:50 AM, Alexandroupoli, Weather by CustomWeather, © 2015

Note: Actual official high and low records may vary slightly from our data, if they occured in-between our weather recording intervals... More about our weather records

Advertising

Alexandroupoli weather history for previous 24 hours

 ConditionsComfort  
Time TempWeatherWind HumidityBarometerVisibility
6:50 AM
Fri, Aug 28
61 °FClear.No wind68%30.09 "Hg10 mi
5:50 AM63 °FClear.No wind64%30.07 "Hg10 mi
5:20 AM63 °FClear.3 mph73%30.07 "Hg10 mi
4:50 AM63 °FClear.3 mph73%30.07 "Hg10 mi
4:20 AM63 °FClear.6 mph73%30.07 "Hg10 mi
3:50 AM63 °FClear.3 mph73%30.07 "Hg10 mi
3:20 AM64 °FClear.6 mph68%30.07 "Hg10 mi
2:50 AM64 °FClear.7 mph68%30.07 "Hg10 mi
2:20 AM66 °FClear.No wind68%30.07 "Hg10 mi
1:50 AM68 °FClear.5 mph60%30.07 "Hg10 mi
1:20 AM68 °FClear.6 mph60%30.09 "Hg10 mi
12:50 AM70 °FClear.5 mph57%30.09 "Hg10 mi
12:20 AM72 °FClear.5 mph53%30.07 "Hg10 mi
11:50 PM
Thu, Aug 27
72 °FClear.5 mph53%30.07 "Hg10 mi
11:20 PM73 °FClear.6 mph50%30.07 "Hg10 mi
10:50 PM73 °FClear.6 mph53%30.07 "Hg10 mi
10:20 PM77 °FClear.5 mph47%30.04 "Hg10 mi
9:50 PM79 °FClear.7 mph48%30.04 "Hg10 mi
9:20 PM79 °FClear.6 mph45%30.04 "Hg10 mi
8:50 PM81 °FSunny.8 mph42%30.04 "Hg10 mi
8:20 PM81 °FSunny.6 mph45%30.04 "Hg10 mi
7:50 PM84 °FSunny.8 mph40%30.01 "Hg10 mi
7:20 PM84 °FPassing clouds.10 mph45%30.01 "HgN/A
6:50 PM86 °FPassing clouds.14 mph38%30.01 "HgN/A
6:20 PM86 °FPassing clouds.14 mph35%30.01 "HgN/A
5:50 PM88 °FPassing clouds.14 mph33%30.04 "HgN/A
5:20 PM88 °FPassing clouds.16 mph33%30.04 "HgN/A
4:50 PM88 °FPassing clouds.16 mph33%30.01 "HgN/A
4:20 PM88 °FPassing clouds.16 mph38%30.04 "HgN/A
3:50 PM88 °FPassing clouds.16 mph38%30.04 "HgN/A
3:20 PM86 °FPassing clouds.17 mph35%30.07 "HgN/A
2:50 PM86 °FPassing clouds.15 mph35%30.07 "HgN/A
2:20 PM86 °FSunny.16 mph38%30.07 "Hg10 mi
1:50 PM84 °FSunny.17 mph37%30.07 "Hg10 mi
1:20 PM84 °FSunny.16 mph37%30.07 "Hg10 mi
12:50 PM82 °FSunny.18 mph37%30.07 "Hg10 mi
12:20 PM81 °FSunny.16 mph39%30.07 "Hg10 mi
11:50 AM81 °FSunny.17 mph39%30.07 "Hg10 mi
11:20 AM79 °FSunny.18 mph48%30.07 "Hg10 mi
10:50 AM79 °FSunny.16 mph48%30.07 "Hg10 mi
10:20 AM77 °FSunny.16 mph51%30.07 "Hg10 mi
9:50 AM75 °FSunny.16 mph50%30.07 "Hg10 mi
9:20 AM75 °FSunny.17 mph50%30.07 "Hg10 mi
8:50 AM73 °FSunny.14 mph53%30.07 "Hg10 mi
8:20 AM70 °FSunny.12 mph78%30.07 "Hg10 mi
Weather by CustomWeather, © 2015

See weather overviewHow to use our weather pages